星链-4763 (STARLINK-4763 )

导读

STARLINK-4763是美国SpaceX公司星链(Starlink)星座的成员卫星,于2022年9月11日发射升空。作为星链全球卫星互联网项目的一部分,该卫星运行于低地球轨道,旨在为全球提供高速低延迟互联网服务,尤其侧重覆盖传统基础设施难以抵达的偏远区域,助力消除数字鸿沟,同时星链星座也被应用于应急通信等领域,不过大规模低轨卫星组网也引发了太空拥堵等方面的争议。

基本信息
目录编号:
53805
目录名称:
STARLINK-4763
国际标识:
2022-111AJ
轨道中心:
EARTH
卫星名称:
星链-4763
卫星全名:
星链-4763 (STARLINK-4763 )
卫星状态:
在轨 (已飞行1375 天)
发射日期:
2022-09-11 UTC
国别 :
美国 (US)
星等 :
--
轨道信息
数据来源 国际轨道数据 AOE轨道数据
星历时间 2026-06-17T01:03:09+0800
15小时前
查看轨道信息
2026-06-17T00:00:00+0800
16小时前
查看轨道信息
半长轴 6917.896km 6917.903km
偏心率 0.0001226 0.0000867
轨道倾角 53.160° 53.159°
近地点辐角 88.001° 44.765°
升交点赤经 164.635° 164.830°
平近点角 272.112° 76.975°
近地点 538.91km 539.166km
远地点 540.608km 540.366km
周期 95.438分钟 95.438分钟
每日圈数 15.088351 15.088327
详细信息
固有亮度:
5
最大亮度:
2.5
卫星平台:
Starlink v1.5
覆盖范围:
全球
运营商:
太空探索技术公司
运营商所在国:
美国
制造商(研发单位):
太空探索技术公司
制造商所在国:
美国
使用方式:
暂无
卫星简介
星链(Starlink)计划是由太空探索技术公司(SpaceX)提出的一个巨型低轨卫星互联网星座项目,计划在2019年至2024年间在太空搭建由约1.2万颗卫星组成的“星链”网络,其中1584颗将部署在地球上空550千米处的近地轨道,并从2020年开始工作。该卫星仍在工作。
2D轨道图
3D轨道图
轨道高度分析图
轨道倾角分析图
轨道综合分析图
查看轨道综合分析图